Time,TemperatureF,DewpointF,PressureIn,WindDirection,WindDirectionDegrees,WindSpeedMPH,WindSpeedGustMPH,Humidity,HourlyPrecipIn,Conditions,Clouds,dailyrainin,SoftwareType,DateUTC
2013-04-05 00:00:00,58.8,55.3,30.11,North,4,2.7,3.2,88,0.00,,OVC009,0.00,VWS V14.01,2013-04-05 07:00:00,
2013-04-05 00:10:00,59.0,55.5,30.11,NNE,33,3.8,4.8,88,0.00,,OVC009,0.00,VWS V14.01,2013-04-05 07:10:00,
2013-04-05 00:20:00,59.0,55.1,30.11,North,356,4.8,4.8,87,0.00,,OVC009,0.00,VWS V14.01,2013-04-05 07:20:00,
2013-04-05 00:30:00,59.0,55.1,30.11,North,11,6.4,7.5,87,0.00,,OVC009,0.00,VWS V14.01,2013-04-05 07:30:00,
2013-04-05 00:40:00,58.8,55.0,30.11,NNE,15,0.0,6.4,87,0.00,,OVC009,0.00,VWS V14.01,2013-04-05 07:40:00,
2013-04-05 00:50:00,58.8,55.3,30.11,NNE,33,4.3,7.5,88,0.00,,OVC011,0.00,VWS V14.01,2013-04-05 07:50:00,
2013-04-05 01:10:00,58.8,55.0,30.11,North,3,3.2,8.1,87,0.00,,OVC011,0.00,VWS V14.01,2013-04-05 08:10:00,
2013-04-05 01:20:00,58.8,55.0,30.11,NNE,23,3.2,7.5,87,0.00,,OVC011,0.00,VWS V14.01,2013-04-05 08:20:00,
2013-04-05 01:30:00,58.8,55.0,30.11,ENE,61,3.2,7.5,87,0.00,,OVC011,0.00,VWS V14.01,2013-04-05 08:30:00,
2013-04-05 01:40:00,58.8,55.0,30.11,North,1,3.2,7.0,87,0.00,,OVC011,0.00,VWS V14.01,2013-04-05 08:40:00,
2013-04-05 01:50:00,58.8,55.0,30.11,NNE,18,3.2,7.0,87,0.00,,OVC011,0.00,VWS V14.01,2013-04-05 08:50:00,
2013-04-05 02:00:00,58.8,55.0,30.11,NE,53,4.8,7.0,87,0.00,,OVC011,0.00,VWS V14.01,2013-04-05 09:00:00,
2013-04-05 02:10:00,58.6,54.8,30.11,ENE,62,3.2,6.4,87,0.00,,OVC011,0.00,VWS V14.01,2013-04-05 09:10:00,
2013-04-05 02:20:00,58.8,55.0,30.11,ENE,60,3.2,4.8,87,0.00,,OVC011,0.00,VWS V14.01,2013-04-05 09:20:00,
2013-04-05 02:30:00,58.8,55.0,30.11,ENE,64,5.9,6.4,87,0.00,,OVC011,0.00,VWS V14.01,2013-04-05 09:30:00,
2013-04-05 02:40:00,58.8,55.0,30.11,ENE,74,0.0,5.9,87,0.00,,OVC009,0.00,VWS V14.01,2013-04-05 09:40:00,
2013-04-05 02:50:00,58.8,55.0,30.11,ENE,65,0.0,4.3,87,0.00,,OVC009,0.00,VWS V14.01,2013-04-05 09:50:00,
2013-04-05 03:00:00,59.0,55.1,30.11,ESE,119,2.7,5.9,87,0.00,,OVC009,0.00,VWS V14.01,2013-04-05 10:00:00,
2013-04-05 03:10:00,59.0,55.1,30.11,ESE,105,0.0,3.8,87,0.00,,OVC009,0.00,VWS V14.01,2013-04-05 10:10:00,
2013-04-05 03:20:00,59.2,55.3,30.11,SE,125,0.0,0.0,87,0.00,,OVC009,0.00,VWS V14.01,2013-04-05 10:20:00,
2013-04-05 03:30:00,59.2,55.3,30.11,ESE,111,0.0,0.0,87,0.00,,OVC009,0.00,VWS V14.01,2013-04-05 10:30:00,
2013-04-05 03:40:00,59.2,55.0,30.11,NNW,327,0.0,4.8,86,0.00,,OVC009,0.00,VWS V14.01,2013-04-05 10:40:00,
2013-04-05 03:50:00,59.2,55.0,30.11,NW,321,0.0,2.7,86,0.00,,OVC009,0.00,VWS V14.01,2013-04-05 10:50:00,
2013-04-05 04:00:00,59.2,54.7,30.11,NNW,333,0.0,0.0,85,0.00,,OVC009,0.00,VWS V14.01,2013-04-05 11:00:00,
2013-04-05 04:10:00,59.0,54.5,30.11,NW,321,0.0,0.0,85,0.00,,OVC009,0.00,VWS V14.01,2013-04-05 11:10:00,
2013-04-05 04:20:00,59.0,54.5,30.11,North,9,4.8,4.8,85,0.00,,OVC009,0.00,VWS V14.01,2013-04-05 11:20:00,
2013-04-05 04:30:00,59.0,54.5,30.11,East,80,4.3,4.8,85,0.00,,OVC009,0.00,VWS V14.01,2013-04-05 11:30:00,
2013-04-05 04:40:00,59.0,54.5,30.11,ENE,62,0.0,4.8,85,0.00,,OVC009,0.00,VWS V14.01,2013-04-05 11:40:00,
2013-04-05 04:50:00,59.0,54.5,30.11,ENE,65,4.3,7.5,85,0.00,,OVC009,0.00,VWS V14.01,2013-04-05 11:50:00,
2013-04-05 05:00:00,59.0,54.5,30.11,NNE,33,3.8,7.0,85,0.00,,OVC009,0.00,VWS V14.01,2013-04-05 12:00:00,
2013-04-05 05:10:00,58.8,54.3,30.11,NNE,17,4.3,6.4,85,0.00,,OVC009,0.00,VWS V14.01,2013-04-05 12:10:00,
2013-04-05 05:20:00,58.8,54.3,30.11,NNE,23,3.2,7.5,85,0.00,,OVC009,0.00,VWS V14.01,2013-04-05 12:20:00,
2013-04-05 05:30:00,58.8,54.3,30.11,NE,56,5.4,6.4,85,0.00,,OVC009,0.00,VWS V14.01,2013-04-05 12:30:00,
2013-04-05 05:40:00,58.8,54.7,30.11,ENE,71,3.8,7.5,86,0.00,,OVC009,0.00,VWS V14.01,2013-04-05 12:40:00,
2013-04-05 05:50:00,58.8,54.7,30.11,NE,56,4.8,7.5,86,0.00,,OVC009,0.00,VWS V14.01,2013-04-05 12:50:00,
2013-04-05 06:00:00,58.8,54.7,30.11,ENE,76,5.9,7.5,86,0.00,,OVC009,0.00,VWS V14.01,2013-04-05 13:00:00,
2013-04-05 06:10:00,58.8,54.7,30.11,ENE,60,5.9,7.5,86,0.00,,OVC009,0.00,VWS V14.01,2013-04-05 13:10:00,
2013-04-05 06:20:00,58.6,54.5,30.11,ENE,62,4.3,7.5,86,0.00,,OVC009,0.00,VWS V14.01,2013-04-05 13:20:00,
2013-04-05 06:30:00,58.6,54.5,30.11,East,93,3.2,7.5,86,0.00,,OVC009,0.00,VWS V14.01,2013-04-05 13:30:00,
2013-04-05 06:40:00,58.6,54.5,30.11,East,92,0.0,7.0,86,0.00,,OVC009,0.00,VWS V14.01,2013-04-05 13:40:00,
2013-04-05 06:50:00,58.5,54.3,30.11,East,91,0.0,6.4,86,0.00,,OVC009,0.00,VWS V14.01,2013-04-05 13:50:00,
2013-04-05 07:00:00,58.5,54.3,30.11,NNE,16,3.8,6.4,86,0.00,,OVC009,0.00,VWS V14.01,2013-04-05 14:00:00,
2013-04-05 07:10:00,58.5,54.3,30.11,North,11,3.8,4.8,86,0.00,,OVC009,0.00,VWS V14.01,2013-04-05 14:10:00,
2013-04-05 07:20:00,58.3,54.1,30.11,North,7,3.8,8.6,86,0.00,,OVC009,0.00,VWS V14.01,2013-04-05 14:20:00,
2013-04-05 07:30:00,58.3,54.1,30.11,North,0,5.9,7.5,86,0.00,,OVC009,0.00,VWS V14.01,2013-04-05 14:30:00,
2013-04-05 07:40:00,58.3,54.1,30.11,ESE,108,0.0,7.0,86,0.00,,OVC009,0.00,VWS V14.01,2013-04-05 14:40:00,
2013-04-05 07:50:00,58.5,54.3,30.11,ENE,64,4.8,4.8,86,0.00,,OVC011,0.00,VWS V14.01,2013-04-05 14:50:00,
2013-04-05 08:00:00,58.5,54.3,30.14,ENE,76,0.0,4.8,86,0.00,,OVC011,0.00,VWS V14.01,2013-04-05 15:00:00,
2013-04-05 08:10:00,58.5,54.3,30.14,North,0,3.2,5.9,86,0.00,,OVC011,0.00,VWS V14.01,2013-04-05 15:10:00,
2013-04-05 08:20:00,58.6,54.5,30.14,North,351,0.0,3.2,86,0.00,,OVC011,0.00,VWS V14.01,2013-04-05 15:20:00,
2013-04-05 08:30:00,58.8,54.7,30.14,NE,56,0.0,2.7,86,0.00,,OVC011,0.00,VWS V14.01,2013-04-05 15:30:00,
2013-04-05 08:40:00,59.0,54.5,30.14,NNW,327,0.0,3.2,85,0.00,,OVC011,0.00,VWS V14.01,2013-04-05 15:40:00,
2013-04-05 08:50:00,59.2,54.4,30.14,West,273,4.3,4.3,84,0.00,,OVC011,0.00,VWS V14.01,2013-04-05 15:50:00,
2013-04-05 09:00:00,59.4,54.5,30.14,West,269,0.0,4.3,84,0.00,,OVC011,0.00,VWS V14.01,2013-04-05 16:00:00,
2013-04-05 09:10:00,59.5,54.7,30.14,WSW,258,0.0,3.2,84,0.00,,OVC011,0.00,VWS V14.01,2013-04-05 16:10:00,
2013-04-05 09:20:00,59.7,54.6,30.14,South,187,3.8,3.8,83,0.00,,OVC011,0.00,VWS V14.01,2013-04-05 16:20:00,
2013-04-05 09:30:00,59.9,54.7,30.14,SW,227,3.2,4.8,83,0.00,,OVC011,0.00,VWS V14.01,2013-04-05 16:30:00,
2013-04-05 09:40:00,60.1,54.6,30.14,SSE,167,0.0,5.9,82,0.00,,OVC011,0.00,VWS V14.01,2013-04-05 16:40:00,
2013-04-05 09:50:00,60.3,54.8,30.14,SSW,205,0.0,5.9,82,0.00,,OVC011,0.00,VWS V14.01,2013-04-05 16:50:00,
2013-04-05 10:10:00,60.3,54.8,30.14,South,184,3.2,7.5,82,0.00,,OVC011,0.00,VWS V14.01,2013-04-05 17:10:00,
2013-04-05 10:20:00,60.3,54.8,30.14,West,280,0.0,7.5,82,0.00,,OVC011,0.00,VWS V14.01,2013-04-05 17:20:00,
2013-04-05 10:40:00,60.1,54.6,30.17,ESE,120,0.0,3.8,82,0.00,,OVC011,0.00,VWS V14.01,2013-04-05 17:40:00,
2013-04-05 10:50:00,60.3,54.8,30.17,SSE,159,0.0,3.8,82,0.00,,OVC011,0.00,VWS V14.01,2013-04-05 17:50:00,
2013-04-05 11:00:00,60.4,54.9,30.17,SSE,151,0.0,4.3,82,0.00,,OVC011,0.00,VWS V14.01,2013-04-05 18:00:00,
2013-04-05 11:10:00,60.4,54.9,30.14,ENE,73,0.0,3.2,82,0.00,,OVC011,0.00,VWS V14.01,2013-04-05 18:10:00,
2013-04-05 11:20:00,60.6,54.8,30.14,SW,229,3.8,3.8,81,0.00,,OVC011,0.00,VWS V14.01,2013-04-05 18:20:00,
2013-04-05 11:30:00,61.2,55.0,30.14,North,351,0.0,3.8,80,0.00,,OVC011,0.00,VWS V14.01,2013-04-05 18:30:00,
2013-04-05 11:40:00,61.9,55.3,30.14,WNW,283,0.0,4.8,79,0.00,,OVC015,0.00,VWS V14.01,2013-04-05 18:40:00,
2013-04-05 11:50:00,62.4,55.1,30.14,SSE,153,0.0,4.8,77,0.00,,OVC015,0.00,VWS V14.01,2013-04-05 18:50:00,
2013-04-05 12:00:00,63.0,55.3,30.14,NW,309,0.0,4.8,76,0.00,,OVC015,0.00,VWS V14.01,2013-04-05 19:00:00,
2013-04-05 12:10:00,63.9,55.8,30.14,East,99,3.2,5.9,75,0.00,,OVC015,0.00,VWS V14.01,2013-04-05 19:10:00,
2013-04-05 12:20:00,64.6,55.4,30.14,ENE,57,0.0,4.8,72,0.00,,OVC015,0.00,VWS V14.01,2013-04-05 19:20:00,
2013-04-05 12:30:00,65.3,55.7,30.14,South,174,3.2,7.0,71,0.00,,OVC015,0.00,VWS V14.01,2013-04-05 19:30:00,
2013-04-05 12:40:00,66.4,55.9,30.14,West,275,0.0,9.1,69,0.00,,BKN017,0.00,VWS V14.01,2013-04-05 19:40:00,
2013-04-05 12:50:00,67.3,56.4,30.14,West,262,4.3,7.5,68,0.00,,BKN017,0.00,VWS V14.01,2013-04-05 19:50:00,
2013-04-05 13:00:00,68.0,55.8,30.11,WNW,300,6.4,7.5,65,0.00,,BKN017,0.00,VWS V14.01,2013-04-05 20:00:00,
2013-04-05 13:10:00,68.4,55.7,30.11,South,172,4.3,9.1,64,0.00,,BKN017,0.00,VWS V14.01,2013-04-05 20:10:00,
2013-04-05 13:20:00,68.9,55.8,30.11,WSW,239,5.9,8.1,63,0.00,,BKN017,0.00,VWS V14.01,2013-04-05 20:20:00,
2013-04-05 13:30:00,68.7,55.2,30.11,South,186,4.8,9.9,62,0.00,,BKN017,0.00,VWS V14.01,2013-04-05 20:30:00,
2013-04-05 13:40:00,68.5,55.5,30.11,South,185,9.1,9.9,63,0.00,,SCT017,0.00,VWS V14.01,2013-04-05 20:40:00,
2013-04-05 13:50:00,68.4,54.8,30.11,NW,305,6.4,10.5,62,0.00,,SCT017,0.00,VWS V14.01,2013-04-05 20:50:00,
2013-04-05 14:10:00,68.2,54.7,30.11,SSE,166,3.8,10.5,62,0.00,,SCT017,0.00,VWS V14.01,2013-04-05 21:10:00,
2013-04-05 14:20:00,68.4,54.4,30.11,South,172,7.0,10.5,61,0.00,,SCT017,0.00,VWS V14.01,2013-04-05 21:20:00,
2013-04-05 14:30:00,67.8,54.3,30.11,SSW,193,6.4,9.7,62,0.00,,SCT017,0.00,VWS V14.01,2013-04-05 21:30:00,
2013-04-05 14:40:00,67.6,54.6,30.11,SSW,209,7.5,14.8,63,0.00,,SCT017,0.00,VWS V14.01,2013-04-05 21:40:00,
2013-04-05 14:50:00,67.6,54.6,30.11,SSW,196,7.5,12.6,63,0.00,,CLR,0.00,VWS V14.01,2013-04-05 21:50:00,
2013-04-05 15:00:00,68.2,54.7,30.08,South,182,4.8,9.1,62,0.00,,CLR,0.00,VWS V14.01,2013-04-05 22:00:00,
2013-04-05 15:10:00,68.9,54.5,30.08,South,176,9.7,9.7,60,0.00,,CLR,0.00,VWS V14.01,2013-04-05 22:10:00,
2013-04-05 15:20:00,69.6,54.7,30.08,South,172,7.0,10.5,59,0.00,,CLR,0.00,VWS V14.01,2013-04-05 22:20:00,
2013-04-05 15:30:00,70.2,54.7,30.08,South,188,3.2,10.5,58,0.00,,CLR,0.00,VWS V14.01,2013-04-05 22:30:00,
2013-04-05 15:40:00,69.3,53.9,30.08,South,170,3.2,10.5,58,0.00,,CLR,0.00,VWS V14.01,2013-04-05 22:40:00,
2013-04-05 15:50:00,68.7,54.3,30.08,SSE,151,3.8,10.5,60,0.00,,CLR,0.00,VWS V14.01,2013-04-05 22:50:00,
2013-04-05 16:00:00,68.5,54.1,30.05,SSE,157,4.3,9.7,60,0.00,,CLR,0.00,VWS V14.01,2013-04-05 23:00:00,
2013-04-05 16:10:00,68.4,54.8,30.05,East,96,3.2,7.5,62,0.00,,CLR,0.00,VWS V14.01,2013-04-05 23:10:00,
2013-04-05 16:20:00,68.0,54.1,30.05,SE,141,4.3,7.5,61,0.00,,CLR,0.00,VWS V14.01,2013-04-05 23:20:00,
2013-04-05 16:30:00,68.0,55.0,30.02,SSW,193,0.0,7.0,63,0.00,,CLR,0.00,VWS V14.01,2013-04-05 23:30:00,
2013-04-05 16:40:00,67.8,54.8,30.05,SSE,147,5.9,7.5,63,0.00,,CLR,0.00,VWS V14.01,2013-04-05 23:40:00,
2013-04-05 16:50:00,67.6,54.6,30.05,SSW,200,4.3,7.5,63,0.00,,CLR,0.00,VWS V14.01,2013-04-05 23:50:00,
2013-04-05 17:00:00,67.8,54.8,30.05,SSW,193,3.2,9.7,63,0.00,,CLR,0.00,VWS V14.01,2013-04-06 00:00:00,
2013-04-05 17:10:00,67.3,54.7,30.05,SE,146,0.0,6.4,64,0.00,,CLR,0.00,VWS V14.01,2013-04-06 00:10:00,
2013-04-05 17:20:00,67.6,55.0,30.05,SSW,207,2.7,5.4,64,0.00,,CLR,0.00,VWS V14.01,2013-04-06 00:20:00,
2013-04-05 17:30:00,68.0,55.0,30.05,SW,227,2.7,7.0,63,0.00,,CLR,0.00,VWS V14.01,2013-04-06 00:30:00,
2013-04-05 17:40:00,68.7,55.2,30.05,East,99,4.3,7.5,62,0.00,,CLR,0.00,VWS V14.01,2013-04-06 00:40:00,
2013-04-05 17:50:00,69.1,55.1,30.05,SSE,149,5.9,7.0,61,0.00,,CLR,0.00,VWS V14.01,2013-04-06 00:50:00,
2013-04-05 18:00:00,68.9,54.5,30.05,SSE,161,3.8,6.4,60,0.00,,CLR,0.00,VWS V14.01,2013-04-06 01:00:00,
2013-04-05 18:10:00,68.5,54.1,30.05,South,171,2.7,7.5,60,0.00,,CLR,0.00,VWS V14.01,2013-04-06 01:10:00,
2013-04-05 18:20:00,68.0,53.6,30.05,ESE,107,3.2,6.4,60,0.00,,CLR,0.00,VWS V14.01,2013-04-06 01:20:00,
2013-04-05 18:30:00,67.5,54.0,30.05,East,83,4.8,5.9,62,0.00,,CLR,0.00,VWS V14.01,2013-04-06 01:30:00,
2013-04-05 18:40:00,66.9,53.5,30.05,South,177,0.0,5.9,62,0.00,,CLR,0.00,VWS V14.01,2013-04-06 01:40:00,
2013-04-05 18:50:00,66.4,53.4,30.05,SSE,157,0.0,6.4,63,0.00,,CLR,0.00,VWS V14.01,2013-04-06 01:50:00,
2013-04-05 19:00:00,65.5,53.4,30.05,ESE,107,4.8,6.4,65,0.00,,CLR,0.00,VWS V14.01,2013-04-06 02:00:00,
2013-04-05 19:10:00,64.8,53.2,30.02,ENE,65,0.0,7.5,66,0.00,,CLR,0.00,VWS V14.01,2013-04-06 02:10:00,
2013-04-05 19:20:00,64.0,53.3,30.02,ENE,68,7.0,7.5,68,0.00,,CLR,0.00,VWS V14.01,2013-04-06 02:20:00,
2013-04-05 19:30:00,63.1,52.8,30.02,NE,49,7.5,9.9,69,0.00,,CLR,0.00,VWS V14.01,2013-04-06 02:30:00,
2013-04-05 19:40:00,62.4,52.9,30.05,ESE,105,4.8,8.1,71,0.00,,CLR,0.00,VWS V14.01,2013-04-06 02:40:00,
2013-04-05 19:50:00,61.7,52.6,30.05,ENE,77,7.5,7.5,72,0.00,,CLR,0.00,VWS V14.01,2013-04-06 02:50:00,
2013-04-05 20:00:00,61.0,52.3,30.05,East,88,3.8,7.5,73,0.00,,CLR,0.00,VWS V14.01,2013-04-06 03:00:00,
2013-04-05 20:10:00,60.6,52.3,30.05,East,81,3.8,7.0,74,0.00,,CLR,0.00,VWS V14.01,2013-04-06 03:10:00,
2013-04-05 20:20:00,60.1,52.1,30.05,East,83,0.0,4.8,75,0.00,,CLR,0.00,VWS V14.01,2013-04-06 03:20:00,
2013-04-05 20:30:00,59.9,52.3,30.05,East,96,0.0,6.4,76,0.00,,CLR,0.00,VWS V14.01,2013-04-06 03:30:00,
2013-04-05 20:40:00,59.7,52.2,30.05,SE,132,0.0,0.0,76,0.00,,CLR,0.00,VWS V14.01,2013-04-06 03:40:00,
2013-04-05 20:50:00,59.5,52.3,30.05,SE,132,0.0,0.0,77,0.00,,CLR,0.00,VWS V14.01,2013-04-06 03:50:00,
2013-04-05 21:00:00,59.4,52.5,30.05,SE,139,0.0,0.0,78,0.00,,CLR,0.00,VWS V14.01,2013-04-06 04:00:00,
2013-04-05 21:10:00,59.0,52.2,30.08,SE,139,0.0,0.0,78,0.00,,CLR,0.00,VWS V14.01,2013-04-06 04:10:00,
2013-04-05 21:20:00,59.0,52.5,30.08,SE,139,0.0,0.0,79,0.00,,CLR,0.00,VWS V14.01,2013-04-06 04:20:00,
2013-04-05 21:30:00,58.8,52.3,30.08,SE,139,0.0,0.0,79,0.00,,CLR,0.00,VWS V14.01,2013-04-06 04:30:00,
2013-04-05 21:40:00,58.8,52.3,30.08,SE,139,0.0,0.0,79,0.00,,CLR,0.00,VWS V14.01,2013-04-06 04:40:00,
2013-04-05 21:50:00,58.5,52.3,30.08,North,7,3.2,3.8,80,0.00,,CLR,0.00,VWS V14.01,2013-04-06 04:50:00,
2013-04-05 22:00:00,58.1,52.0,30.08,North,351,0.0,4.3,80,0.00,,CLR,0.00,VWS V14.01,2013-04-06 05:00:00,
2013-04-05 22:10:00,57.7,51.6,30.08,North,351,4.3,4.3,80,0.00,,CLR,0.00,VWS V14.01,2013-04-06 05:10:00,
2013-04-05 22:20:00,57.6,51.8,30.08,North,351,0.0,4.3,81,0.00,,CLR,0.00,VWS V14.01,2013-04-06 05:20:00,
2013-04-05 22:30:00,57.4,51.6,30.08,West,280,0.0,0.0,81,0.00,,CLR,0.00,VWS V14.01,2013-04-06 05:30:00,
2013-04-05 22:40:00,57.2,51.4,30.08,West,280,0.0,0.0,81,0.00,,CLR,0.00,VWS V14.01,2013-04-06 05:40:00,
2013-04-05 22:50:00,57.2,51.4,30.08,West,280,0.0,0.0,81,0.00,,CLR,0.00,VWS V14.01,2013-04-06 05:50:00,
2013-04-05 23:00:00,57.2,51.4,30.08,West,280,0.0,0.0,81,0.00,,CLR,0.00,VWS V14.01,2013-04-06 06:00:00,
2013-04-05 23:10:00,57.0,51.6,30.08,West,280,0.0,0.0,82,0.00,,CLR,0.00,VWS V14.01,2013-04-06 06:10:00,
2013-04-05 23:20:00,56.7,51.2,30.08,West,280,0.0,0.0,82,0.00,,CLR,0.00,VWS V14.01,2013-04-06 06:20:00,
2013-04-05 23:30:00,56.5,51.1,30.08,NW,326,0.0,0.0,82,0.00,,CLR,0.00,VWS V14.01,2013-04-06 06:30:00,
2013-04-05 23:40:00,56.5,51.4,30.08,NW,311,0.0,0.0,83,0.00,,CLR,0.00,VWS V14.01,2013-04-06 06:40:00,
2013-04-05 23:50:00,56.3,51.2,30.08,North,4,4.8,6.4,83,0.00,,CLR,0.00,VWS V14.01,2013-04-06 06:50:00,